Tracking 19280 objects as of 14-Nov-2018
HD Live streaming from Space Station
objects crossing your sky now

SYNCOM 2 (A 26)

Track SYNCOM 2 (A 26) now!
SYNCOM 2 (A 26) is classified as:


NORAD ID: 634
Int'l Code: 1963-031A
Perigee: 35,774.4 km
Apogee: 35,812.6 km
Inclination: 35.0 °
Period: 1,436.1 minutes
Semi major axis: 42164 km
RCS: 50.1187 m2 (large)
Launch date: July 26, 1963
Source: United States (US)
Launch site: AIR FORCE EASTERN TEST RANGE (AFETR)
aabbcc
Your satellite tracking list
Your tracking list is empty




NASA's NSSDC Master Catalog

Two Line Element Set (TLE):
1   634U 63031A   18313.63847994 -.00000197 +00000-0 +00000-0 0  9990
2   634 034.9604 338.8824 0004536 157.7623 228.3281 01.00272600202521
Source of the keplerian elements: AFSPC